| time (UTC) | temp F | wind direction | speed MPH | gust MPH | rain 1hr in | rain 24hr in | rain mn in | humidity % | barometer mb |
| 20260506102330 | 48 | 272 | 5.0 | 8.0 | 0.00 | 0.00 | 0.00 | 34 | 978.9 |
| 20260506101430 | 48 | 285 | 5.0 | 7.0 | 0.00 | 0.00 | 0.00 | 33 | 979.0 |
| 20260506100530 | 49 | 256 | 7.0 | 11.0 | 0.00 | 0.00 | 0.00 | 31 | 979.0 |
| 20260506095630 | 50 | 271 | 6.0 | 11.0 | 0.00 | 0.00 | 0.00 | 31 | 979.1 |
| 20260506094730 | 50 | 246 | 6.0 | 9.0 | 0.00 | 0.00 | 0.00 | 32 | 979.1 |
| 20260506093831 | 49 | 224 | 7.0 | 11.0 | 0.00 | 0.00 | 0.00 | 31 | 979.4 |
| 20260506092930 | 50 | 234 | 5.0 | 8.0 | 0.00 | 0.00 | 0.00 | 33 | 979.1 |
| 20260506091130 | 49 | 276 | 5.0 | 8.0 | 0.00 | 0.00 | 0.00 | 33 | 979.4 |
| 20260506090230 | 48 | 291 | 5.0 | 8.0 | 0.00 | 0.00 | 0.00 | 35 | 979.3 |
| 20260506085330 | 48 | 195 | 6.0 | 13.0 | 0.00 | 0.00 | 0.00 | 33 | 979.6 |
| 20260506084430 | 48 | 195 | 6.0 | 13.0 | 0.00 | 0.00 | 0.00 | 30 | 979.5 |
| 20260506083530 | 48 | 209 | 5.0 | 8.0 | 0.00 | 0.00 | 0.00 | 32 | 979.6 |
| 20260506082630 | 46 | 223 | 6.0 | 9.0 | 0.00 | 0.00 | 0.00 | 36 | 979.7 |
| 20260506081730 | 46 | 247 | 6.0 | 8.0 | 0.00 | 0.00 | 0.00 | 39 | 979.6 |
| 20260506080831 | 44 | 284 | 6.0 | 7.0 | 0.00 | 0.00 | 0.00 | 42 | 979.7 |
| 20260506002930 | 29 | 121 | 3.0 | 3.0 | 0.00 | 0.00 | 0.00 | 82 | 978.2 |
| 20260506002030 | 29 | 135 | 2.0 | 3.0 | 0.00 | 0.00 | 0.00 | 81 | 978.2 |
| 20260506001130 | 29 | 181 | 2.0 | 2.0 | 0.00 | 0.00 | 0.00 | 79 | 978.3 |
| 20260506000230 | 29 | 181 | 2.0 | 3.0 | 0.00 | 0.00 | 0.00 | 78 | 978.3 |
| 20260505235330 | 30 | 175 | 2.0 | 3.0 | 0.00 | 0.00 | 0.00 | 77 | 978.1 |
| 20260505234430 | 29 | 187 | 3.0 | 3.0 | 0.00 | 0.00 | 0.00 | 76 | 978.0 |
| 20260505233530 | 29 | 181 | 3.0 | 3.0 | 0.00 | 0.00 | 0.00 | 71 | 978.0 |
| 20260505232631 | 30 | 160 | 3.0 | 3.0 | 0.00 | 0.00 | 0.00 | 70 | 977.9 |
| 20260505231730 | 30 | 111 | 2.0 | 3.0 | 0.00 | 0.00 | 0.00 | 70 | 977.9 |
| 20260505225930 | 31 | 55 | 2.0 | 2.0 | 0.00 | 0.00 | 0.00 | 69 | 977.8 |
| 20260505225030 | 31 | 142 | 1.0 | 2.0 | 0.00 | 0.00 | 0.00 | 67 | 977.7 |
| 20260505224130 | 32 | 35 | 1.0 | 2.0 | 0.00 | 0.00 | 0.00 | 65 | 977.7 |
| 20260505221430 | 33 | 216 | 2.0 | 2.0 | 0.00 | 0.00 | 0.00 | 65 | 977.5 |
| 20260505220530 | 33 | 181 | 2.0 | 2.0 | 0.00 | 0.00 | 0.00 | 66 | 977.7 |
| 20260505215631 | 33 | 193 | 2.0 | 3.0 | 0.00 | 0.00 | 0.00 | 65 | 977.7 |
| 20260505214730 | 33 | 183 | 2.0 | 2.0 | 0.00 | 0.00 | 0.00 | 65 | 977.6 |
| 20260505213830 | 33 | 207 | 1.0 | 2.0 | 0.00 | 0.00 | 0.00 | 65 | 977.6 |
| 20260505212930 | 34 | 163 | 2.0 | 2.0 | 0.00 | 0.00 | 0.00 | 64 | 977.6 |
| 20260505212030 | 33 | 167 | 2.0 | 2.0 | 0.00 | 0.00 | 0.00 | 66 | 977.6 |
| 20260505211130 | 33 | 181 | 2.0 | 3.0 | 0.00 | 0.00 | 0.00 | 66 | 977.4 |
| 20260505210230 | 33 | 171 | 2.0 | 2.0 | 0.00 | 0.00 | 0.00 | 66 | 977.2 |
| 20260505205330 | 34 | 58 | 2.0 | 4.0 | 0.00 | 0.00 | 0.00 | 64 | 977.2 |
| 20260505204430 | 35 | 287 | 4.0 | 5.0 | 0.00 | 0.00 | 0.00 | 63 | 977.1 |
| 20260505203530 | 35 | 255 | 3.0 | 5.0 | 0.00 | 0.00 | 0.00 | 65 | 976.9 |
| 20260505201730 | 35 | 215 | 3.0 | 4.0 | 0.00 | 0.00 | 0.00 | 67 | 976.9 |
| 20260505200830 | 35 | 247 | 4.0 | 4.0 | 0.00 | 0.00 | 0.00 | 67 | 976.9 |
| 20260505195030 | 35 | 218 | 4.0 | 4.0 | 0.00 | 0.00 | 0.00 | 67 | 976.4 |
| 20260505194130 | 35 | 223 | 3.0 | 4.0 | 0.00 | 0.00 | 0.00 | 66 | 976.4 |
| 20260505192330 | 36 | 237 | 3.0 | 4.0 | 0.00 | 0.00 | 0.00 | 64 | 976.4 |
| 20260505190530 | 38 | 287 | 3.0 | 7.0 | 0.00 | 0.00 | 0.00 | 58 | 976.1 |
| 20260505185631 | 38 | 265 | 3.0 | 7.0 | 0.00 | 0.00 | 0.00 | 58 | 976.2 |
| 20260505184730 | 39 | 270 | 3.0 | 4.0 | 0.00 | 0.00 | 0.00 | 56 | 976.4 |
| 20260505183830 | 40 | 272 | 5.0 | 8.0 | 0.00 | 0.00 | 0.00 | 55 | 976.1 |
| 20260505182930 | 41 | 284 | 5.0 | 8.0 | 0.00 | 0.00 | 0.00 | 53 | 976.0 |
| 20260505175330 | 41 | 287 | 2.0 | 4.0 | 0.00 | 0.00 | 0.00 | 48 | 975.5 |
| 20260505174430 | 40 | 56 | 3.0 | 6.0 | 0.00 | 0.00 | 0.00 | 48 | 975.4 |
| 20260505173530 | 39 | 16 | 6.0 | 10.0 | 0.00 | 0.00 | 0.00 | 48 | 975.4 |
| 20260505172630 | 39 | 349 | 12.0 | 17.0 | 0.00 | 0.00 | 0.00 | 51 | 975.7 |
| 20260505171730 | 40 | 312 | 11.0 | 20.0 | 0.00 | 0.00 | 0.00 | 50 | 975.7 |
| 20260505170830 | 41 | 327 | 17.0 | 21.0 | 0.00 | 0.00 | 0.00 | 49 | 975.7 |
| 20260505165930 | 41 | 330 | 15.0 | 21.0 | 0.00 | 0.00 | 0.00 | 51 | 975.6 |
| 20260505164130 | 42 | 341 | 14.0 | 23.0 | 0.00 | 0.00 | 0.00 | 49 | 975.5 |
| 20260505163230 | 43 | 312 | 11.0 | 17.0 | 0.00 | 0.00 | 0.00 | 43 | 975.4 |
| 20260505162330 | 44 | 305 | 12.0 | 17.0 | 0.00 | 0.00 | 0.00 | 40 | 975.3 |
| 20260505161430 | 45 | 295 | 8.0 | 13.0 | 0.00 | 0.00 | 0.00 | 38 | 975.2 |
| 20260505160530 | 45 | 303 | 7.0 | 12.0 | 0.00 | 0.00 | 0.00 | 38 | 975.1 |
| 20260505152030 | 44 | 227 | 4.0 | 6.0 | 0.00 | 0.00 | 0.00 | 42 | 975.1 |
| 20260505151130 | 43 | 201 | 4.0 | 7.0 | 0.00 | 0.00 | 0.00 | 44 | 975.0 |
| 20260505150230 | 43 | 241 | 3.0 | 5.0 | 0.00 | 0.00 | 0.00 | 45 | 975.1 |
| 20260505124731 | 43 | 261 | 8.0 | 18.0 | 0.00 | 0.00 | 0.00 | 46 | 974.6 |
| 20260505123830 | 42 | 251 | 11.0 | 18.0 | 0.00 | 0.00 | 0.00 | 48 | 974.8 |
| 20260505122930 | 43 | 278 | 9.0 | 15.0 | 0.00 | 0.00 | 0.00 | 45 | 974.7 |
| 20260505122030 | 44 | 265 | 8.0 | 14.0 | 0.00 | 0.00 | 0.00 | 42 | 974.5 |
| 20260505121131 | 45 | 309 | 7.0 | 9.0 | 0.00 | 0.00 | 0.00 | 37 | 974.3 |
| 20260505120230 | 45 | 322 | 11.0 | 15.0 | 0.00 | 0.00 | 0.00 | 31 | 974.2 |
| 20260505115330 | 45 | 317 | 12.0 | 16.0 | 0.00 | 0.00 | 0.00 | 32 | 974.1 |
| 20260505114430 | 46 | 305 | 13.0 | 18.0 | 0.00 | 0.00 | 0.00 | 35 | 973.8 |
| 20260505113530 | 46 | 308 | 10.0 | 17.0 | 0.00 | 0.00 | 0.00 | 35 | 974.0 |
| 20260505112631 | 45 | 322 | 14.0 | 22.0 | 0.00 | 0.00 | 0.00 | 36 | 974.0 |
| 20260505111730 | 46 | 313 | 11.0 | 16.0 | 0.00 | 0.00 | 0.00 | 36 | 973.9 |
| 20260505110830 | 45 | 292 | 15.0 | 16.0 | 0.00 | 0.00 | 0.00 | 35 | 973.9 |